{"data":{"norad_id":66201,"intl_designator":"2025-243AA","name":"STARLINK-35543","alt_names":[],"object_type":"PAYLOAD","status":"ACTIVE","operator":null,"country":"US","launch_date":"2025-10-26","launch_site_code":"AFETR","launch_vehicle":null,"mission":null,"orbit_class":"UNKNOWN","rcs_meters":null,"size_class":null,"mass_kg":null,"dimensions":null,"purposes":["comms"],"wikipedia_slug":null,"has_3d_model":false,"image_url":null,"decayed_at":null,"tle_current":{"epoch":"2026-05-25T00:32:25.492992Z","epoch_age_seconds":83573,"freshness":"FRESH","line1":"1 66201U 25243AA  26145.02251728  .00015904  00000+0  52284-3 0  9998","line2":"2 66201  53.1577 250.4804 0001356  79.0873 281.0281 15.31719723 32340","mean_motion":15.31719723,"eccentricity":0.0001356,"inclination_deg":53.1577,"raan_deg":250.4804,"arg_perigee_deg":79.0873,"mean_anomaly_deg":281.0281,"bstar":0.00052284,"rev_number":3234,"period_min":94.011977411875,"perigee_km":469.75250287154,"apogee_km":471.60990236809,"semimajor_km":6848.8182026198,"source":"CELESTRAK","updated_at":"2026-05-25T13:38:21.125056Z"}}}